{"data":{"norad_id":64921,"intl_designator":"2025-157T","name":"STARLINK-34699","alt_names":[],"object_type":"PAYLOAD","status":"ACTIVE","operator":null,"country":"US","launch_date":"2025-07-26","launch_site_code":"AFETR","launch_vehicle":null,"mission":null,"orbit_class":"UNKNOWN","rcs_meters":null,"size_class":null,"mass_kg":null,"dimensions":null,"purposes":["comms"],"wikipedia_slug":null,"has_3d_model":false,"image_url":null,"decayed_at":null,"tle_current":{"epoch":"2026-09-20T05:00:03.653568Z","epoch_age_seconds":149527,"freshness":"FRESH","line1":"1 64921U 25157T   26263.20837562  .00021307  00000+0  63971-3 0  9995","line2":"2 64921  53.1570 158.7330 0001414  87.0149 273.1016 15.34411646 65951","mean_motion":15.34411646,"eccentricity":0.0001414,"inclination_deg":53.157,"raan_deg":158.733,"arg_perigee_deg":87.0149,"mean_anomaly_deg":273.1016,"bstar":0.00063971,"rev_number":6595,"period_min":93.847045788129,"perigee_km":461.70133614423,"apogee_km":463.63591597528,"semimajor_km":6840.8056260598,"source":"CELESTRAK","updated_at":"2026-09-21T09:00:35.483150Z"}}}